This is the latest recevied weather packets stored in our database for station/object DG7FDL-7. If no packets are shown the sender has not sent any weather packets the latest 10 day(s).
| Time | Temp. | Humidity | Pressure | Rain* | Wind** | Luminosity | Snow |
|---|---|---|---|---|---|---|---|
| 1777583091 | 22.22° C | 32% | 1029.3 hPa | - | - | - | - |
| 1777582196 | 22.22° C | 32% | 1029.1 hPa | - | - | - | - |
| 1777581296 | 21.67° C | 32% | 1029.3 hPa | - | - | - | - |
| 1777580391 | 22.22° C | 31% | 1029.2 hPa | - | - | - | - |
| 1777579490 | 22.22° C | 31% | 1029.1 hPa | - | - | - | - |
| 1777577690 | 21.67° C | 31% | 1028.9 hPa | - | - | - | - |
| 1777576790 | 21.67° C | 31% | 1028.8 hPa | - | - | - | - |
| 1777575890 | 21.67° C | 31% | 1028.9 hPa | - | - | - | - |
| 1777574990 | 21.67° C | 31% | 1028.7 hPa | - | - | - | - |
| 1777574090 | 22.22° C | 30% | 1028.7 hPa | - | - | - | - |
| 1777573190 | 21.11° C | 31% | 1028.5 hPa | - | - | - | - |
| 1777572290 | 21.67° C | 30% | 1028.4 hPa | - | - | - | - |
| 1777571390 | 21.67° C | 30% | 1028.3 hPa | - | - | - | - |
| 1777570490 | 21.11° C | 31% | 1028.4 hPa | - | - | - | - |
| 1777569590 | 21.11° C | 30% | 1028.4 hPa | - | - | - | - |
| 1777568690 | 20.56° C | 29% | 1028.4 hPa | - | - | - | - |
| 1777567802 | 21.67° C | 29% | 1028.4 hPa | - | - | - | - |
| 1777566890 | 21.11° C | 29% | 1028.6 hPa | - | - | - | - |
| 1777565991 | 21.11° C | 29% | 1028.5 hPa | - | - | - | - |
| 1777565089 | 21.11° C | 28% | 1028.5 hPa | - | - | - | - |
| 1777564196 | 21.11° C | 28% | 1028.5 hPa | - | - | - | - |
| 1777563289 | 20.56° C | 28% | 1028.4 hPa | - | - | - | - |
| 1777562391 | 20° C | 28% | 1028.6 hPa | - | - | - | - |
| 1777561489 | 20° C | 27% | 1028.7 hPa | - | - | - | - |
| 1777559689 | 20° C | 26% | 1028.8 hPa | - | - | - | - |
* Rain since midnight (hover to see other rain measurements)
** Current wind speed in m/s (hover to see current wind gust speed)